Dewpoint
31 32 33 36 36 37 38 38 38 39 42 46 55 57 57 59 59 59 61 60 61 61 61 60 59 60 60 59 59 58 57 56 58 56 55 55 56 56 56 56 56 56 57
29 30 32 33 34 35 36 37 37 38 39 43 50 58 56 55 54 54 53 54 56 59 60 59 59 59 58 58 58 57 56 54 55 55 54 52 52 54 54 55 56 56 56
26 27 27 31 31 33 34 36 37 37 38 42 49 54 54 53 52 50 48 46 50 53 54 54 56 57 57 58 58 58 56 55 53 53 51 50 48 50 52 54 54 54 54
25 24 25 27 28 31 34 35 35 36 38 38 39 43 44 44 45 46 46 45 44 46 50 51 52 51 52 54 57 59 58 57 54 54 53 49 48 48 48 51 52 53 53
19 22 25 26 28 30 33 34 34 34 36 36 37 36 36 39 39 41 41 41 41 41 44 45 46 48 50 50 49 52 55 56 55 53 53 51 50 49 47 47 49 52 52
16 17 18 21 25 27 27 29 31 31 33 35 35 35 34 34 34 36 37 38 38 38 39 41 42 43 45 46 50 50 49 50 51 52 53 52 51 50 49 47 46 46 48
15 17 17 18 19 22 23 21 22 25 27 29 32 33 34 33 32 33 33 34 34 34 36 38 38 39 39 41 45 47 48 50 49 49 49 51 51 52 50 49 49 48 48
15 16 17 17 18 20 22 20 19 19 19 21 23 26 30 31 31 31 32 31 32 33 33 34 35 35 36 37 39 42 43 44 45 46 48 48 49 50 51 50 49 47 48
15 15 15 16 15 16 18 19 18 16 18 18 19 20 20 22 21 20 23 25 24 23 28 27 28 29 30 33 35 35 34 38 39 41 42 42 44 46 50 50 50 48 43
15 15 14 13 13 12 13 16 15 12 13 14 15 16 18 19 19 19 17 18 20 21 22 22 22 23 25 28 30 32 31 31 32 33 34 35 37 39 40 41 43 48 48
15 14 13 13 12 11 10 10 13 12 10 10 11 11 12 13 14 14 16 17 18 18 19 19 19 20 22 25 25 25 27 28 29 30 30 30 31 32 32 34 37 39 39
15 14 14 13 11 9 8 8 8 10 11 10 10 10 11 11 10 12 14 14 14 16 17 18 18 18 20 23 24 24 26 26 26 27 27 27 27 30 31 33 34 34 35
15 14 14 13 11 9 8 7 8 8 10 9 9 9 10 10 10 11 13 15 15 15 16 17 17 18 20 21 23 24 25 25 25 26 27 26 27 28 29 30 31 32 32
15 14 14 13 12 10 8 7 8 9 10 10 9 9 9 9 11 12 13 15 15 15 15 16 16 19 18 18 23 24 25 25 25 27 27 25 25 25 28 28 30 29 31
15 15 14 14 13 10 8 7 8 9 9 9 9 9 9 9 10 10 11 13 14 14 15 14 15 16 15 15 23 25 25 25 24 25 24 24 26 29 29 27 28 28 28
15 15 15 14 12 10 7 7 8 9 9 9 9 10 9 10 11 11 11 11 12 13 14 14 15 16 12 22 26 26 24 23 23 23 22 23 25 24 27 27 29 29 27
15 14 14 18 16 9 7 7 8 9 9 9 8 9 9 9 10 10 9 9 10 11 13 14 15 15 15 21 25 26 22 21 21 21 22 22 20 23 22 25 27 27 28
15 16 18 13 10 8 8 9 9 9 9 9 8 9 9 9 9 9 9 9 9 10 12 13 13 13 12 20 23 24 21 19 19 20 21 20 19 21 23 23 23 24 23
15 15 13 9 8 8 9 9 9 9 9 8 8 8 8 8 8 9 9 10 10 10 12 12 12 12 12 18 21 22 18 17 17 17 18 18 19 24 26 23 22 21 23
14 10 8 8 8 10 10 9 8 8 7 8 8 8 9 8 7 8 9 9 10 10 12 12 12 14 12 17 21 22 18 16 16 16 17 22 23 26 27 24 23 24 23
8 8 9 15 17 11 9 8 8 7 8 8 8 8 8 7 7 7 8 9 11 12 12 12 12 12 13 14 20 22 18 16 15 15 16 16 22 24 26 28 27 29 28
20 23 21 19 15 9 8 7 7 7 8 8 7 7 7 7 7 8 10 11 11 11 12 12 12 11 11 16 18 21 22 21 17 16 16 18 23 24 25 25 27 30 25
21 21 19 14 9 8 7 6 6 7 7 7 6 6 6 7 8 11 10 9 10 11 12 10 10 11 12 12 19 20 21 21 19 20 22 23 23 24 24 27 26 24 22
18 16 12 8 6 6 6 6 6 7 7 6 7 8 9 10 10 10 10 11 11 12 11 11 12 14 15 15 14 16 17 23 20 21 21 22 23 24 24 21 19 20 21
16 11 7 5 5 6 6 6 6 6 6 7 9 10 9 10 10 11 11 12 13 14 15 17 17 18 17 16 19 21 19 21 22 22 23 23 19 18 17 17 18 19 19
7 6 5 5 6 6 6 5 6 6 7 9 8 9 10 10 11 11 12 15 16 18 18 18 18 17 19 20 21 21 22 22 22 23 21 15 13 14 14 16 17 17 19
Lifted_Index
9 9 10 9 9 8 7 7 5 4 3 1 0 -1 -2 -1 -1 -0 -0 -1 -1 -1 0 1 0 -0 -0 0 1 2 2 2 2 2 3 3 4 4 4 4 4 5 5
9 9 9 9 9 8 8 7 6 4 3 1 0 -1 -1 -1 -1 -0 -0 -0 -1 -1 0 0 0 0 0 1 1 2 2 2 2 2 3 4 4 4 4 4 5 4 5
9 9 9 9 9 8 8 7 6 5 3 2 1 0 0 0 -0 -0 0 0 -0 -0 -0 0 0 1 1 1 2 2 2 3 3 3 3 4 4 4 4 5 5 4 4
9 9 9 9 9 9 8 8 7 6 5 3 2 1 1 1 1 1 1 1 1 1 1 1 1 1 2 2 2 2 2 3 3 3 4 4 4 4 4 4 4 4 4
9 9 9 10 10 10 9 8 7 7 6 6 4 3 2 2 3 3 2 2 2 3 3 3 3 3 3 3 3 3 3 3 3 3 4 4 4 4 4 4 4 4 4
9 9 10 10 11 12 11 10 8 8 7 7 6 6 5 5 4 4 4 4 4 5 5 5 5 5 5 5 5 4 4 4 4 4 4 4 4 4 4 4 4 4 5
9 10 10 11 11 12 12 12 11 9 9 9 9 8 7 7 7 7 6 6 5 6 6 6 7 7 7 7 7 6 6 6 6 5 5 5 5 6 6 5 5 5 5
9 10 10 11 11 12 13 13 13 12 12 12 12 11 10 10 10 10 9 9 8 8 7 8 8 8 8 8 8 8 8 7 7 7 7 7 7 8 8 7 7 6 6
9 9 10 10 11 12 12 13 13 14 14 14 14 14 14 14 14 14 14 14 14 12 11 12 12 11 11 10 9 9 8 8 8 8 8 8 9 9 9 9 8 8 7
9 9 10 10 11 12 12 13 14 14 15 15 16 16 16 17 17 17 17 17 17 17 16 16 16 16 15 15 13 12 11 10 10 10 9 9 9 9 9 9 9 8 8
9 9 10 10 11 12 12 13 14 14 15 16 16 16 17 17 17 17 18 18 18 19 19 19 19 19 18 18 17 16 15 14 14 13 12 12 11 11 10 10 9 9 8
8 9 10 10 11 12 12 13 14 15 15 16 16 16 17 17 17 17 18 19 19 19 20 20 19 19 19 19 19 19 18 17 17 17 16 16 16 15 14 13 12 11 10
8 9 9 10 11 12 12 13 14 15 16 16 16 16 17 17 17 18 19 19 20 20 20 20 19 19 19 20 20 20 19 19 19 19 19 19 19 19 18 17 16 15 15
8 8 9 10 11 12 13 13 15 16 16 17 17 17 17 18 19 19 20 20 20 20 20 20 21 21 21 21 21 21 21 20 21 21 21 21 21 20 20 20 19 19 18
7 8 9 10 11 12 13 14 15 16 17 17 17 18 19 19 20 20 21 21 21 21 21 21 22 22 22 22 22 22 21 21 21 21 22 22 22 22 21 21 21 20 20
7 8 9 10 11 12 14 15 16 17 17 17 18 18 19 20 20 21 21 21 22 22 22 22 22 22 22 23 23 22 22 22 22 21 22 22 22 22 22 22 22 21 21
7 8 10 11 12 14 15 16 17 17 17 17 18 19 19 20 20 21 21 21 21 21 22 22 22 22 23 23 23 23 23 22 22 22 22 22 22 22 22 22 22 21 21
9 10 11 12 14 15 16 17 17 17 17 18 18 19 20 20 20 21 21 21 21 21 21 22 22 22 23 23 23 23 23 23 23 22 22 22 22 22 22 21 21 21 21
11 12 13 14 15 16 16 16 16 17 17 18 19 19 20 20 20 20 21 21 21 21 22 22 22 22 23 23 23 24 23 23 23 23 23 23 22 22 22 21 21 21 20
14 14 15 15 16 16 16 16 16 17 17 18 19 20 20 20 20 21 21 21 22 22 22 23 23 23 23 24 24 24 24 24 24 24 23 23 23 22 21 21 21 20 20
15 15 15 15 16 16 16 16 17 18 18 19 19 20 20 21 21 21 22 22 22 22 23 23 23 24 24 24 24 24 24 24 24 24 23 23 22 21 20 20 19 18 18
15 15 15 16 16 17 17 17 18 19 19 19 20 20 21 21 21 22 22 22 22 23 22 23 23 23 24 24 24 23 23 23 22 22 21 20 20 19 18 17 16 16 16
15 15 16 16 17 18 18 18 19 19 19 20 20 20 21 21 22 22 22 22 22 22 22 21 21 21 21 21 21 20 20 19 19 18 18 17 16 15 14 13 13 13 13
15 16 16 16 17 18 19 19 19 20 20 20 20 21 21 21 22 22 22 22 21 21 20 19 19 18 18 18 18 17 16 15 15 15 14 14 13 13 12 12 12 12 12
16 16 16 17 18 19 19 20 20 20 20 20 20 21 21 21 21 21 20 20 20 19 18 18 17 17 16 16 15 15 14 14 13 13 13 13 13 13 13 12 12 12 12
16 16 17 17 18 19 20 20 20 20 20 20 20 20 20 20 20 19 19 18 18 18 18 17 17 16 15 15 14 14 13 13 13 13 13 13 13 13 13 13 13 12 12